| time (UTC) | temp F | wind direction | speed knots | gust knots | rain 1hr in | rain 24hr in | rain mn in | humidity % | barometer mb |
| 20260507180030 | 53 | 287 | 2.6 | 6.1 | 0.00 | 0.00 | 0.00 | 73 | 1018.9 |
| 20260507174529 | 53 | 227 | 2.6 | 5.2 | 0.00 | 0.00 | 0.00 | 69 | 1018.8 |
| 20260507173030 | 54 | 293 | 1.7 | 6.1 | 0.00 | 0.00 | 0.00 | 67 | 1018.8 |
| 20260507171529 | 54 | 259 | 2.6 | 6.1 | 0.00 | 0.00 | 0.00 | 67 | 1018.9 |
| 20260507170032 | 54 | 221 | 1.7 | 7.0 | 0.00 | 0.00 | 0.00 | 69 | 1018.8 |
| 20260507164528 | 55 | 243 | 2.6 | 6.1 | 0.00 | 0.00 | 0.00 | 68 | 1018.6 |
| 20260507163035 | 55 | 300 | 3.5 | 6.1 | 0.00 | 0.00 | 0.00 | 68 | 1018.5 |
| 20260507161530 | 55 | 260 | 2.6 | 7.8 | 0.00 | 0.00 | 0.00 | 65 | 1018.4 |
| 20260507160054 | 55 | 321 | 3.5 | 7.8 | 0.00 | 0.00 | 0.00 | 68 | 1018.3 |
| 20260507154529 | 56 | 272 | 4.3 | 7.0 | 0.00 | 0.00 | 0.00 | 65 | 1018.3 |
| 20260507153032 | 55 | 333 | 4.3 | 7.0 | 0.00 | 0.00 | 0.00 | 67 | 1018.3 |
| 20260507151530 | 55 | 221 | 1.7 | 8.7 | 0.00 | 0.00 | 0.00 | 66 | 1018.4 |
| 20260507150030 | 55 | 274 | 4.3 | 7.0 | 0.00 | 0.00 | 0.00 | 70 | 1018.1 |
| 20260507144542 | 54 | 235 | 4.3 | 9.6 | 0.00 | 0.00 | 0.00 | 72 | 1018.2 |
| 20260507143032 | 55 | 315 | 3.5 | 8.7 | 0.00 | 0.00 | 0.00 | 69 | 1018.3 |
| 20260507141530 | 55 | 255 | 4.3 | 8.7 | 0.00 | 0.00 | 0.00 | 70 | 1018.2 |
| 20260507140034 | 56 | 305 | 3.5 | 9.6 | 0.00 | 0.00 | 0.00 | 70 | 1018.1 |
| 20260507134530 | 55 | 259 | 3.5 | 7.8 | 0.00 | 0.00 | 0.00 | 68 | 1018.3 |
| 20260507133028 | 55 | 250 | 4.3 | 7.8 | 0.00 | 0.00 | 0.00 | 68 | 1018.3 |
| 20260507131531 | 55 | 316 | 3.5 | 7.8 | 0.00 | 0.00 | 0.00 | 69 | 1018.3 |
| 20260507130036 | 55 | 229 | 3.5 | 7.8 | 0.00 | 0.00 | 0.00 | 69 | 1018.3 |
| 20260507124527 | 55 | 231 | 4.3 | 6.1 | 0.00 | 0.00 | 0.00 | 65 | 1018.2 |
| 20260507123038 | 55 | 184 | 3.5 | 7.0 | 0.00 | 0.00 | 0.00 | 70 | 1018.0 |
| 20260507121528 | 55 | 233 | 4.3 | 7.8 | 0.00 | 0.00 | 0.00 | 69 | 1018.1 |
| 20260507120030 | 55 | 236 | 3.5 | 7.0 | 0.00 | 0.00 | 0.00 | 69 | 1018.2 |
| 20260507114605 | 54 | 321 | 3.5 | 7.8 | 0.00 | 0.00 | 0.00 | 71 | 1018.1 |
| 20260507113030 | 55 | 229 | 3.5 | 7.8 | 0.00 | 0.00 | 0.00 | 71 | 1018.2 |
| 20260507111537 | 55 | 243 | 3.5 | 8.7 | 0.00 | 0.00 | 0.00 | 71 | 1018.1 |
| 20260507110031 | 54 | 212 | 3.5 | 6.1 | 0.00 | 0.00 | 0.00 | 72 | 1018.1 |
| 20260507104528 | 53 | 251 | 2.6 | 7.0 | 0.00 | 0.00 | 0.00 | 71 | 1018.1 |
| 20260507103032 | 53 | 269 | 3.5 | 7.0 | 0.00 | 0.00 | 0.00 | 74 | 1017.9 |
| 20260507101530 | 53 | 203 | 2.6 | 7.0 | 0.00 | 0.00 | 0.00 | 75 | 1017.9 |
| 20260507100033 | 52 | 178 | 3.5 | 6.1 | 0.00 | 0.00 | 0.00 | 76 | 1017.6 |
| 20260507094531 | 52 | 247 | 3.5 | 6.1 | 0.00 | 0.00 | 0.00 | 76 | 1017.6 |
| 20260507093040 | 52 | 276 | 2.6 | 5.2 | 0.00 | 0.00 | 0.00 | 77 | 1017.4 |
| 20260507091530 | 53 | 255 | 3.5 | 7.0 | 0.00 | 0.00 | 0.00 | 75 | 1017.3 |
| 20260507090028 | 52 | 200 | 2.6 | 6.1 | 0.00 | 0.00 | 0.00 | 77 | 1017.2 |
| 20260507084531 | 51 | 248 | 1.7 | 6.1 | 0.00 | 0.00 | 0.00 | 78 | 1017.4 |
| 20260507083030 | 51 | 269 | 2.6 | 5.2 | 0.00 | 0.00 | 0.00 | 77 | 1017.2 |
| 20260507081536 | 51 | 250 | 1.7 | 4.3 | 0.00 | 0.00 | 0.00 | 77 | 1017.1 |
| 20260507080030 | 51 | 238 | 2.6 | 4.3 | 0.00 | 0.00 | 0.00 | 79 | 1017.0 |
| 20260507074528 | 50 | 235 | 0.9 | 3.5 | 0.00 | 0.00 | 0.00 | 79 | 1016.8 |
| 20260507073028 | 51 | 207 | 0.9 | 3.5 | 0.00 | 0.00 | 0.00 | 78 | 1016.6 |
| 20260507071530 | 51 | 167 | 1.7 | 4.3 | 0.00 | 0.00 | 0.00 | 78 | 1016.5 |
| 20260507070030 | 51 | 173 | 1.7 | 5.2 | 0.00 | 0.00 | 0.00 | 78 | 1016.4 |
| 20260507064530 | 50 | 214 | 2.6 | 6.1 | 0.00 | 0.00 | 0.00 | 78 | 1016.4 |
| 20260507063030 | 49 | 150 | 0.9 | 2.6 | 0.00 | 0.00 | 0.00 | 79 | 1016.2 |
| 20260507061529 | 47 | 0 | 0.0 | 0.9 | 0.00 | 0.00 | 0.00 | 79 | 1016.1 |
| 20260507060026 | 46 | 0 | 0.0 | 0.0 | 0.00 | 0.00 | 0.00 | 78 | 1016.0 |
| 20260507054528 | 44 | 0 | 0.0 | 1.7 | 0.00 | 0.00 | 0.00 | 77 | 1015.9 |
| 20260507053030 | 43 | 0 | 0.0 | 0.9 | 0.00 | 0.00 | 0.00 | 76 | 1015.9 |
| 20260507051528 | 42 | 0 | 0.0 | 0.9 | 0.00 | 0.00 | 0.00 | 77 | 1015.7 |
| 20260507050036 | 41 | 60 | 0.0 | 2.6 | 0.00 | 0.00 | 0.00 | 78 | 1015.6 |
| 20260507044531 | 41 | 54 | 0.0 | 1.7 | 0.00 | 0.00 | 0.00 | 78 | 1015.5 |
| 20260507043028 | 40 | 55 | 0.0 | 2.6 | 0.00 | 0.00 | 0.00 | 79 | 1015.4 |
| 20260507041545 | 40 | 0 | 0.0 | 0.9 | 0.00 | 0.00 | 0.00 | 79 | 1015.3 |
| 20260507040028 | 40 | 0 | 0.0 | 0.0 | 0.00 | 0.00 | 0.00 | 79 | 1015.3 |
| 20260507034530 | 40 | 0 | 0.0 | 0.9 | 0.00 | 0.00 | 0.00 | 78 | 1015.2 |
| 20260507033032 | 40 | 56 | 0.0 | 0.9 | 0.00 | 0.00 | 0.00 | 77 | 1015.1 |
| 20260507031529 | 41 | 56 | 0.0 | 2.6 | 0.00 | 0.00 | 0.00 | 76 | 1015.0 |
| 20260507030030 | 42 | 0 | 0.0 | 2.6 | 0.00 | 0.00 | 0.00 | 75 | 1015.1 |
| 20260507024530 | 42 | 46 | 0.0 | 3.5 | 0.00 | 0.00 | 0.00 | 75 | 1015.1 |
| 20260507023027 | 42 | 59 | 1.7 | 3.5 | 0.00 | 0.00 | 0.00 | 75 | 1014.9 |
| 20260507021528 | 41 | 58 | 0.9 | 1.7 | 0.00 | 0.00 | 0.00 | 75 | 1014.6 |
| 20260507020029 | 42 | 0 | 0.0 | 0.0 | 0.00 | 0.00 | 0.00 | 75 | 1014.6 |
| 20260507014547 | 43 | 0 | 0.0 | 1.7 | 0.00 | 0.00 | 0.00 | 74 | 1014.6 |
| 20260507013041 | 43 | 0 | 0.0 | 2.6 | 0.00 | 0.00 | 0.00 | 73 | 1014.4 |
| 20260507011537 | 43 | 56 | 0.9 | 3.5 | 0.00 | 0.00 | 0.00 | 73 | 1014.4 |
| 20260507010032 | 43 | 57 | 0.0 | 1.7 | 0.00 | 0.00 | 0.00 | 72 | 1014.3 |
| 20260507004529 | 43 | 51 | 0.9 | 4.3 | 0.00 | 0.00 | 0.00 | 71 | 1014.2 |
| 20260507003034 | 44 | 61 | 1.7 | 3.5 | 0.00 | 0.00 | 0.00 | 70 | 1014.3 |
| 20260507001530 | 44 | 50 | 1.7 | 3.5 | 0.00 | 0.00 | 0.00 | 68 | 1014.2 |
| 20260507000032 | 45 | 60 | 1.7 | 4.3 | 0.00 | 0.00 | 0.00 | 66 | 1014.1 |
| 20260506234530 | 45 | 52 | 1.7 | 5.2 | 0.00 | 0.00 | 0.00 | 66 | 1014.2 |
| 20260506233032 | 46 | 53 | 2.6 | 5.2 | 0.00 | 0.00 | 0.00 | 67 | 1014.1 |
| 20260506230031 | 46 | 64 | 2.6 | 6.1 | 0.00 | 0.00 | 0.00 | 68 | 1014.0 |
| 20260506224528 | 46 | 58 | 1.7 | 6.1 | 0.00 | 0.00 | 0.00 | 67 | 1013.9 |
| 20260506223028 | 47 | 62 | 2.6 | 6.1 | 0.00 | 0.00 | 0.00 | 67 | 1013.9 |
| 20260506221530 | 47 | 47 | 2.6 | 4.3 | 0.00 | 0.00 | 0.00 | 68 | 1014.0 |
| 20260506220029 | 47 | 46 | 2.6 | 6.1 | 0.00 | 0.00 | 0.00 | 68 | 1013.8 |
| 20260506214531 | 47 | 42 | 1.7 | 7.0 | 0.00 | 0.00 | 0.00 | 70 | 1013.7 |
| 20260506213030 | 47 | 58 | 2.6 | 7.0 | 0.00 | 0.00 | 0.00 | 71 | 1013.6 |
| 20260506211528 | 47 | 41 | 1.7 | 5.2 | 0.00 | 0.00 | 0.00 | 72 | 1013.4 |
| 20260506210036 | 47 | 55 | 1.7 | 4.3 | 0.00 | 0.00 | 0.00 | 73 | 1013.4 |
| 20260506204528 | 47 | 53 | 1.7 | 5.2 | 0.00 | 0.00 | 0.00 | 72 | 1013.5 |
| 20260506203037 | 47 | 53 | 0.9 | 4.3 | 0.00 | 0.00 | 0.00 | 72 | 1013.3 |
| 20260506201531 | 48 | 49 | 1.7 | 7.0 | 0.00 | 0.00 | 0.00 | 71 | 1013.1 |
| 20260506200032 | 48 | 39 | 1.7 | 7.0 | 0.00 | 0.00 | 0.00 | 71 | 1013.0 |
| 20260506194530 | 48 | 35 | 1.7 | 7.0 | 0.00 | 0.00 | 0.00 | 72 | 1012.8 |
| 20260506193029 | 48 | 52 | 1.7 | 5.2 | 0.00 | 0.00 | 0.00 | 72 | 1012.9 |
| 20260506191529 | 49 | 58 | 0.9 | 6.1 | 0.00 | 0.00 | 0.00 | 72 | 1012.7 |
| 20260506190031 | 49 | 45 | 1.7 | 5.2 | 0.00 | 0.00 | 0.00 | 71 | 1012.7 |
| 20260506184530 | 49 | 27 | 2.6 | 7.8 | 0.00 | 0.00 | 0.00 | 69 | 1012.5 |
| 20260506183030 | 50 | 43 | 2.6 | 7.0 | 0.00 | 0.00 | 0.00 | 67 | 1012.5 |
| 20260506181534 | 51 | 12 | 3.5 | 7.8 | 0.00 | 0.00 | 0.00 | 64 | 1012.4 |